GW0823 Weather Reports


time (UTC)temp
C
wind
direction
speed
KPH
gust
KPH
rain 1hr
cm
rain 24hr
cm
rain mn
cm
humidity
%
barometer
mb
20260502151558 10 241 9.7 20.9 0.00 0.00 0.00 53 1016.2
20260502150108 10 322 6.4 14.5 0.00 0.00 0.00 55 1016.1
20260502130107 6 247 3.2 8.0 0.00 0.00 0.00 80 1016.3
20260502123117 6 0 0.0 0.0 0.00 0.00 0.00 88 1016.2
20260502121559 5 0 0.0 0.0 0.00 0.00 0.00 94 1016.2
20260502120119 3 0 0.0 0.0 0.00 0.00 0.00 96 1016.2
20260502114605 3 0 0.0 4.8 0.00 0.00 0.00 95 1016.3
20260502113116 2 98 1.6 3.2 0.00 0.00 0.00 96 1016.2
20260502111558 2 98 1.6 3.2 0.00 0.00 0.00 95 1016.1
20260502110057 1 0 0.0 0.0 0.00 0.00 0.00 94 1015.9
20260502104559 1 0 0.0 0.0 0.00 0.00 0.00 94 1016.2
20260502103056 1 0 0.0 1.6 0.00 0.00 0.00 93 1016.3
20260502101602 1 0 0.0 1.6 0.00 0.00 0.00 94 1016.3
20260502100104 1 0 0.0 3.2 0.00 0.00 0.00 93 1016.3
20260502090104 1 0 0.0 0.0 0.00 0.00 0.00 93 1016.2
20260502070112 2 0 0.0 0.0 0.00 0.00 0.00 88 1015.7
20260502064557 3 0 0.0 0.0 0.00 0.00 0.00 87 1015.9
20260502063100 3 0 0.0 0.0 0.00 0.00 0.00 86 1016.3
20260502061557 3 107 1.6 3.2 0.00 0.00 0.00 85 1016.3
20260502060058 5 118 0.0 0.0 0.00 0.00 0.00 81 1016.3
20260502054558 5 0 0.0 3.2 0.00 0.00 0.00 79 1016.4
20260502053100 6 0 0.0 4.8 0.00 0.00 0.00 76 1016.5
20260502051603 6 257 1.6 9.7 0.00 0.00 0.00 75 1016.3
20260502050100 7 263 3.2 6.4 0.00 0.00 0.00 74 1016.5
20260502044621 7 263 3.2 9.7 0.00 0.00 0.00 73 1016.4
20260502043103 7 287 4.8 9.7 0.00 0.00 0.00 71 1016.5
20260502041559 7 275 3.2 8.0 0.00 0.00 0.00 72 1016.6
20260502040105 7 273 3.2 12.9 0.00 0.00 0.00 72 1016.4
20260502034558 7 264 1.6 8.0 0.00 0.00 0.00 73 1016.4
20260502033057 8 281 1.6 11.3 0.00 0.00 0.00 70 1016.4
20260502031556 8 296 0.0 14.5 0.00 0.00 0.00 70 1016.3
20260502024558 8 338 8.0 19.3 0.00 0.00 0.00 72 1016.4
20260502023059 8 282 11.3 25.7 0.00 0.00 0.00 73 1015.7
20260502021558 9 212 4.8 14.5 0.00 0.00 0.00 77 1015.7
20260502020058 9 219 4.8 12.9 0.00 0.00 0.00 76 1015.4
20260502014600 10 250 0.0 6.4 0.00 0.00 0.00 76 1015.2
20260502013058 10 0 0.0 6.4 0.00 0.00 0.00 76 1014.9
20260502011558 10 0 0.0 4.8 0.00 0.00 0.00 76 1014.7
20260502010057 10 35 1.6 3.2 0.00 0.00 0.00 76 1014.6
20260502004602 10 0 0.0 0.0 0.00 0.00 0.00 79 1014.6
20260502003100 10 0 0.0 0.0 0.00 0.00 0.00 76 1014.3
20260502001559 10 0 0.0 6.4 0.00 0.00 0.00 74 1014.0
20260501234608 10 245 1.6 8.0 0.00 0.00 0.00 72 1013.4
20260501233111 10 260 12.9 22.5 0.00 0.00 0.00 70 1013.3
20260501231559 11 288 9.7 20.9 0.00 0.00 0.00 68 1013.3
20260501230106 11 200 3.2 17.7 0.00 0.00 0.00 70 1012.9
20260501224602 12 320 8.0 16.1 0.00 0.00 0.00 69 1012.9
20260501223057 12 282 6.4 17.7 0.00 0.00 0.00 70 1012.7
20260501221600 12 292 12.9 25.7 0.00 0.00 0.00 67 1012.6
20260501220108 13 259 8.0 27.4 0.00 0.00 0.00 68 1012.4
20260501214604 13 276 9.7 22.5 0.00 0.00 0.00 65 1012.2
20260501213105 14 245 8.0 24.1 0.00 0.00 0.00 61 1011.9
20260501211607 15 322 11.3 22.5 0.00 0.00 0.00 56 1011.4
20260501210057 16 239 16.1 25.7 0.00 0.00 0.00 50 1011.2
20260501204557 16 209 9.7 22.5 0.00 0.00 0.00 46 1010.8
20260501203107 17 209 4.8 16.1 0.00 0.00 0.00 43 1010.5
20260501201602 16 246 8.0 27.4 0.00 0.00 0.00 41 1010.4
20260501200058 17 264 8.0 19.3 0.00 0.00 0.00 39 1010.3
20260501194618 17 232 6.4 20.9 0.00 0.00 0.00 36 1010.1
20260501193058 18 112 1.6 22.5 0.00 0.00 0.00 34 1010.2
20260501191559 18 173 4.8 16.1 0.00 0.00 0.00 34 1010.7
20260501190100 17 304 8.0 17.7 0.00 0.00 0.00 35 1010.8
20260501184600 18 98 14.5 32.2 0.00 0.00 0.00 34 1010.8
20260501183100 18 221 9.7 24.1 0.00 0.00 0.00 35 1010.9
20260501181628 17 236 6.4 19.3 0.00 0.00 0.00 36 1010.8
20260501180100 17 239 3.2 17.7 0.00 0.00 0.00 36 1011.0
20260501174600 17 239 8.0 17.7 0.00 0.00 0.00 42 1011.3
20260501173113 16 216 3.2 19.3 0.00 0.00 0.00 41 1011.4
20260501171555 16 105 4.8 17.7 0.00 0.00 0.00 45 1011.4
20260501170058 16 30 3.2 14.5 0.00 0.00 0.00 39 1011.6
20260501164557 16 240 6.4 17.7 0.00 0.00 0.00 43 1011.8
20260501163100 16 92 4.8 12.9 0.00 0.00 0.00 44 1012.1
20260501161557 15 69 8.0 22.5 0.00 0.00 0.00 44 1012.4
20260501160100 15 91 3.2 12.9 0.00 0.00 0.00 46 1012.7